Probability
0 0 0 0 0 0 0 0 0 0 0 0 0 1 2 1 0 0 0 0 1 3 4 4 4 5 4 4 4 3 2 2 2 1 0 0 0 0 0 0 0 1 1
0 0 0 0 0 0 0 0 0 0 0 0 0 1 2 1 0 0 0 0 1 2 2 2 3 3 3 3 3 3 2 1 1 0 0 0 0 0 0 0 1 1 2
0 0 0 0 0 0 0 0 0 0 0 0 0 1 2 2 1 0 0 0 0 1 1 1 1 2 3 3 3 3 2 1 0 0 0 0 0 0 0 0 2 3 3
0 0 0 0 0 0 0 0 0 0 0 0 0 0 1 1 1 0 0 0 0 0 1 2 1 2 2 2 3 3 3 2 1 0 0 0 0 0 0 0 1 3 4
0 0 0 0 0 0 0 0 0 0 0 0 0 0 0 0 0 0 0 0 0 0 1 2 2 2 1 1 1 2 3 3 2 1 0 0 0 0 0 0 0 1 3
0 0 1 1 1 0 0 0 0 0 0 0 0 0 0 0 0 0 0 0 0 0 1 1 2 2 1 1 2 2 2 3 2 1 0 0 0 0 0 0 0 1 2
0 0 1 2 1 0 0 0 0 0 0 0 0 0 0 0 0 0 0 0 0 0 0 0 1 1 3 4 4 4 3 2 1 1 1 1 0 0 0 0 0 0 1
0 0 1 1 1 0 0 0 0 0 0 0 0 0 0 0 0 0 0 0 0 1 1 1 1 1 3 5 5 5 3 2 1 1 2 2 1 0 0 1 1 1 0
0 0 0 0 0 0 0 0 0 0 0 0 0 0 0 0 0 0 0 0 1 2 2 2 2 2 2 3 3 3 2 1 1 2 3 2 1 0 1 1 2 2 1
0 0 0 0 0 1 1 0 0 0 0 0 0 0 0 0 0 0 0 0 1 2 2 2 1 1 1 1 1 1 0 0 1 2 3 3 2 2 1 1 3 3 3
0 0 0 0 1 2 1 0 0 0 0 0 0 0 0 0 0 0 0 0 0 1 1 1 0 0 0 0 0 0 0 0 0 1 2 3 3 2 1 1 2 3 3
0 0 0 0 1 2 2 0 0 0 0 0 0 0 0 0 0 0 0 0 0 0 0 0 0 0 0 0 0 0 0 0 0 0 1 2 2 2 1 1 3 4 4
1 0 0 0 1 2 2 1 1 1 0 0 0 0 0 0 0 0 0 0 0 0 0 0 0 0 0 0 0 0 0 0 0 0 0 1 1 0 0 1 3 5 6
2 1 1 1 2 3 3 3 2 2 1 0 0 0 0 0 0 0 0 0 0 0 0 0 0 0 0 0 0 0 1 0 0 0 0 0 0 0 0 0 2 4 5
3 3 2 3 3 4 4 3 3 3 2 1 0 0 0 0 0 0 0 0 0 0 0 0 0 0 0 0 0 0 0 0 0 0 0 0 0 0 0 0 0 1 2
4 4 4 4 4 4 3 3 3 3 2 1 0 0 0 0 0 0 0 0 0 0 0 0 0 0 0 0 0 0 0 0 0 0 0 0 0 0 0 0 0 0 0
5 7 6 5 4 3 3 3 3 3 2 1 1 1 0 1 1 1 1 0 0 0 0 0 0 0 0 0 0 0 0 0 1 0 0 0 0 0 0 0 0 0 0
8 8 8 5 4 4 4 3 4 5 5 3 2 2 1 1 2 2 2 1 1 0 0 0 0 1 1 0 0 0 0 0 0 0 1 1 0 0 0 0 0 0 0
10 10 9 7 6 6 5 4 4 5 5 3 2 2 1 2 3 3 3 3 2 2 2 1 1 2 1 0 0 1 1 0 0 0 1 1 0 0 0 0 0 0 0
12 12 11 9 9 8 7 6 5 5 3 2 1 1 1 1 2 2 2 2 2 3 3 3 3 2 1 1 1 1 2 1 1 1 1 1 1 1 1 0 0 0 0
11 11 10 8 8 6 5 5 5 4 2 1 0 0 0 1 1 1 1 1 1 2 2 3 3 3 3 2 2 3 3 2 2 2 2 2 1 2 2 1 0 0 0
8 7 5 4 4 4 3 2 2 2 2 1 0 0 0 0 0 0 0 0 0 1 1 1 2 2 3 3 3 3 3 2 2 2 2 2 2 2 2 2 0 0 0
5 3 1 1 1 2 1 0 0 1 1 1 0 0 1 2 1 0 0 0 0 0 0 0 1 2 2 2 2 1 1 1 1 1 1 1 1 1 2 1 0 0 0
6 4 2 1 1 2 1 0 0 1 1 0 0 0 1 2 2 1 0 0 0 0 0 0 1 2 1 1 1 0 0 0 0 0 0 0 0 0 1 1 1 0 0
9 8 6 5 5 4 3 1 1 2 2 1 1 0 1 1 1 1 0 0 0 0 0 0 1 1 1 0 0 0 1 1 1 0 0 0 0 0 0 1 1 1 0
12 11 10 7 7 7 5 2 1 3 4 3 2 1 0 0 1 0 0 0 0 0 0 0 0 0 0 0 0 0 1 2 2 1 0 0 0 0 0 0 1 1 1
Wind_Speed
1 0 0 0 0 0 1 1 1 1 1 1 2 3 2 2 2 2 2 5 5 5 5 5 5 6 6 6 6 6 6 6 6 5 5 6 6 6 6 6 6 6 6
1 1 0 0 0 0 1 1 1 1 1 1 1 1 2 2 2 2 2 3 5 5 5 5 5 5 4 5 5 5 5 5 5 5 5 5 5 5 5 5 5 6 6
1 1 1 0 0 1 1 1 1 2 1 1 0 1 1 2 2 3 2 1 2 4 5 5 5 4 4 5 6 5 5 5 5 5 5 5 5 5 5 5 5 4 5
2 2 1 0 0 1 1 2 1 2 1 1 0 0 0 1 2 3 2 2 1 2 3 4 4 4 4 5 6 6 5 6 6 5 5 5 5 4 4 4 4 3 3
2 2 1 1 1 1 1 1 2 2 1 1 0 0 0 0 1 2 2 3 2 2 2 3 4 4 5 5 5 5 5 5 6 6 6 6 6 5 4 4 4 4 4
2 2 1 1 1 2 1 1 2 2 1 1 1 1 1 1 0 1 2 2 2 3 2 2 2 3 5 4 4 4 4 5 5 5 5 5 5 5 5 4 4 4 4
2 2 2 2 2 2 1 2 2 2 1 1 1 2 2 1 1 0 0 1 1 2 2 2 2 1 2 3 4 4 5 5 5 5 5 5 5 5 4 5 4 5 5
1 2 2 2 2 2 2 2 1 1 1 1 1 1 2 2 2 1 1 1 1 1 2 2 2 2 1 1 2 4 4 5 5 5 5 4 5 5 5 4 4 4 4
1 1 2 2 2 2 2 2 1 2 1 1 1 2 1 1 2 2 1 1 0 0 1 1 1 1 2 2 2 2 2 3 4 4 5 5 5 5 5 5 5 5 5
1 1 2 2 2 2 2 2 2 1 2 1 1 1 1 2 1 1 2 2 1 0 1 1 1 2 2 2 2 2 2 3 3 4 4 5 6 5 5 5 5 5 5
0 1 1 2 2 2 2 2 2 2 2 2 1 1 1 1 1 1 1 2 2 1 1 1 1 1 2 2 2 2 2 2 2 3 3 3 4 5 5 5 5 4 4
0 0 1 1 2 2 2 2 2 2 2 2 1 2 2 2 2 2 2 1 1 2 1 1 1 1 1 2 3 3 3 2 2 1 2 2 3 4 5 4 4 4 4
1 1 1 1 2 2 2 2 2 2 2 2 2 1 2 2 2 2 2 1 1 1 2 1 1 1 1 1 2 4 3 3 2 1 1 1 2 2 2 3 3 3 3
3 2 2 2 2 2 2 2 2 1 1 1 1 1 1 1 2 2 2 2 1 1 1 2 1 1 1 1 2 3 2 2 2 2 1 1 1 1 2 2 2 2 2
2 2 2 2 1 1 2 2 1 1 1 1 1 1 1 1 1 1 2 2 2 1 2 2 1 1 1 1 2 1 1 1 2 2 2 1 1 1 2 2 2 2 2
2 2 2 2 2 2 2 2 1 1 1 1 1 1 0 0 0 1 1 2 2 3 2 1 2 2 2 1 1 1 1 1 1 2 2 2 2 2 2 2 2 2 3
3 3 3 3 2 2 2 2 2 1 1 0 0 1 0 0 0 0 1 1 2 2 2 1 1 1 1 2 1 1 1 1 2 3 2 2 2 2 2 2 3 3 3
3 3 3 3 3 2 2 3 3 2 2 1 1 1 1 0 0 0 1 1 1 2 2 2 1 1 1 2 1 1 1 1 2 3 3 3 2 2 2 3 3 3 3
3 3 3 3 3 3 3 3 3 2 2 2 1 1 1 1 1 1 1 1 1 1 1 1 1 1 1 1 1 1 1 1 2 2 3 3 3 3 3 3 3 3 3
4 4 4 3 3 3 3 3 3 2 2 2 1 2 2 2 2 2 2 2 1 1 1 1 1 1 1 2 1 1 2 1 2 2 2 2 2 4 4 4 4 3 3
3 3 3 3 3 3 3 3 3 3 2 2 2 2 2 3 3 3 2 2 2 2 1 1 1 1 1 1 1 1 2 2 2 1 1 2 2 2 2 4 4 4 4
3 3 3 3 3 3 4 5 4 3 3 3 2 2 2 2 2 2 3 3 4 3 3 2 2 2 3 2 2 2 1 2 2 1 1 2 1 2 2 2 3 4 5
3 3 3 3 3 3 4 4 4 3 3 3 2 2 2 1 1 1 1 1 2 3 4 3 3 4 3 3 2 2 2 2 3 1 1 2 2 3 3 2 3 4 4
3 3 3 4 3 4 4 5 4 3 2 2 3 3 2 2 1 1 1 0 1 2 3 3 3 4 3 3 3 3 3 2 3 2 2 3 2 3 3 2 3 4 4
2 3 3 3 4 4 5 5 4 2 2 2 2 2 2 2 2 2 2 1 2 3 2 2 3 3 3 3 3 1 1 1 3 2 2 2 2 2 3 2 2 3 3
3 3 2 3 4 4 5 5 5 3 3 2 2 2 4 4 3 4 3 3 3 3 2 1 1 2 2 2 3 3 3 2 2 3 2 2 2 1 2 2 2 2 2
Wind_Direction
110 104 69 66 73 119 137 150 135 133 143 158 170 169 180 195 197 194 214 213 202 201 206 213 216 215 211 204 202 196 195 198 193 193 198 208 212 212 214 208 205 208 211
151 139 85 45 52 121 120 123 132 131 149 154 167 180 194 199 202 199 207 218 212 206 207 210 211 212 210 204 205 200 197 200 198 199 202 205 212 215 213 213 211 212 213
167 158 140 150 201 134 116 100 85 92 111 119 175 228 217 209 196 193 196 199 215 220 210 205 209 211 216 218 220 209 204 206 200 199 202 207 213 216 215 215 219 221 217
159 150 151 186 151 125 124 119 102 101 96 101 342 283 246 206 203 195 192 201 205 218 217 209 209 215 228 230 226 214 210 211 206 205 206 204 203 203 207 207 209 216 224
160 147 146 143 114 114 123 143 110 125 129 121 174 329 317 225 218 203 204 208 206 209 216 222 219 226 234 240 234 227 222 217 210 210 211 209 207 204 203 206 214 228 237
150 142 135 120 115 109 99 111 107 95 111 128 73 32 1 317 219 211 222 213 209 211 211 222 234 244 238 240 247 249 234 218 209 209 212 212 212 210 211 216 223 237 245
148 139 133 113 110 115 119 114 115 97 71 79 75 23 6 15 33 269 242 231 224 211 199 211 223 237 250 241 241 240 240 233 220 215 217 223 220 217 219 226 230 240 245
158 153 140 132 127 121 102 98 106 107 72 74 109 83 10 359 11 31 42 207 228 197 205 205 205 207 223 237 248 237 236 239 233 228 224 227 230 224 224 229 241 254 255
147 139 144 141 135 137 140 128 127 133 137 74 92 132 141 236 325 355 7 22 9 210 225 212 217 215 215 220 240 246 231 242 240 243 236 232 235 234 233 233 240 251 259
135 147 146 140 138 142 145 155 138 151 147 149 83 89 142 162 165 329 342 356 358 304 261 245 256 251 235 230 235 234 234 242 247 250 255 245 239 241 241 235 239 246 254
261 179 149 137 138 143 151 149 137 141 148 157 161 151 126 103 150 168 278 322 340 316 286 256 257 266 260 243 235 232 233 249 259 261 262 257 247 245 243 239 238 240 242
292 261 147 146 156 159 164 165 152 148 156 152 152 157 161 168 183 178 208 261 301 311 325 300 263 259 262 252 243 240 231 230 243 267 277 271 258 247 243 242 241 244 248
220 231 189 167 168 170 164 152 145 150 163 159 172 178 182 199 182 169 165 196 274 315 328 316 268 255 259 254 254 251 235 217 217 247 285 308 307 265 252 251 248 251 256
210 196 175 173 179 170 162 147 146 167 156 163 180 181 182 214 196 187 172 165 181 332 330 296 308 286 283 266 266 252 240 220 216 234 254 265 300 291 265 258 254 255 255
198 182 170 166 179 169 159 147 144 170 152 165 180 170 184 230 198 201 179 176 170 211 283 284 289 314 301 272 277 249 241 242 218 214 229 227 249 276 273 263 257 256 252
187 168 161 162 170 168 152 141 150 161 147 184 175 135 168 237 178 169 162 169 179 185 229 264 264 302 312 312 339 279 258 278 237 224 221 218 230 257 272 266 264 265 256
179 176 176 169 167 164 160 150 163 154 159 188 178 150 209 165 142 155 144 149 169 172 200 267 284 308 318 320 330 307 257 248 246 236 235 232 242 259 261 268 263 259 250
182 179 166 160 167 170 170 167 179 177 175 189 203 157 225 184 182 218 170 175 180 185 184 232 291 312 301 305 306 296 292 263 251 248 243 244 252 261 264 268 271 259 241
174 169 164 169 181 180 178 183 175 180 184 197 204 195 223 192 222 227 196 187 190 169 170 196 269 294 298 317 333 312 304 300 280 269 252 250 253 260 266 268 268 264 244
177 178 178 182 186 180 179 177 172 177 179 182 201 212 220 207 217 209 196 192 169 142 146 180 260 289 289 302 308 303 306 299 291 308 308 284 268 263 260 262 262 260 251
184 177 174 179 184 184 189 183 188 189 188 201 224 231 231 215 205 198 194 190 168 161 171 191 250 275 281 295 280 273 276 290 278 285 296 293 287 275 265 254 248 246 241
174 163 171 178 191 205 198 191 186 188 194 203 226 257 258 239 220 208 203 193 180 183 200 211 231 243 256 255 264 257 266 286 288 291 273 285 278 272 274 252 240 239 237
180 181 187 186 195 210 199 195 192 189 202 212 222 246 254 248 220 215 216 212 220 219 207 206 221 235 239 231 229 242 245 254 261 276 251 276 272 270 272 261 246 241 240
189 195 201 202 203 215 204 205 204 195 208 227 228 224 221 238 226 200 186 307 280 267 245 229 226 236 238 227 220 228 236 255 264 255 219 260 272 268 279 273 247 234 235
194 201 201 202 209 227 215 208 196 194 212 234 235 227 219 223 224 183 158 248 293 297 282 248 250 260 263 249 208 195 220 255 277 264 210 237 260 274 275 267 259 238 239
203 203 211 216 220 232 228 218 199 193 212 230 240 237 228 229 222 191 191 201 240 266 271 276 302 305 288 273 234 217 217 231 256 265 214 217 246 265 281 266 269 263 248